Regional Weather Roundup
Issued by NWS

Home | Current Version | Previous Version | Graphics & Text | Print | Product List | Glossary Off
Versions: 1 2 3 4 5 6 7 8 9 10 11 12 13 14 15 16 17 18 19 20 21 22 23 24 25 26 27 28 29 30 31 32 33 34 35 36 37 38 39 40 41 42 43 44 45 46 47 48 49 50

000
ASUS43 KTOP 240559
RWRKS

WEATHER ROUNDUP FOR KANSAS
NATIONAL WEATHER SERVICE GOODLAND KS
1200 AM CST SAT FEB 24 2018

NOTE:  "FAIR" INDICATES FEW OR NO CLOUDS BELOW 12,000 FEET WITH NO
SIGNIFICANT WEATHER AND/OR OBSTRUCTIONS TO VISIBILITY.

KSZ001>006-013>018-027>032-041>047-240700-
NORTHWEST KANSAS

CITY           SKY/WX    TMP DP  RH WIND       PRES   REMARKS
GOODLAND       CLOUDY    24  23  96 S6        29.98S FOG
6HR MIN TEMP:  22; 6HR MAX TEMP:  34;

HAYS           CLOUDY    30  26  85 E12       30.07F WCI  20
HILL CITY      CLOUDY    28  25  88 E15       30.07F WCI  16
6HR MIN TEMP:  21; 6HR MAX TEMP:  34;

RUSSELL        CLOUDY    32  28  85 E14       30.06F WCI  22
6HR MIN TEMP:  29; 6HR MAX TEMP:  38;

$$

KSZ061>065-074>080-084>089-240700-
SOUTHWEST KANSAS

CITY           SKY/WX    TMP DP  RH WIND       PRES   REMARKS
DODGE CITY     CLOUDY    28  26  92 E8        30.01F FOG
6HR MIN TEMP:  28; 6HR MAX TEMP:  30;

GARDEN CITY    CLOUDY    28  27  96 E13       29.97F FOG     WCI  17
6HR MIN TEMP:  27; 6HR MAX TEMP:  29;

GREAT BEND     MIX PCPN  29  27  92 E8        30.07S FOG
LIBERAL        MIX PCPN  29  28  96 E13       29.97  FOG     WCI  19
$$

KSZ066>073-081>083-090>101-240700-
SOUTHEAST KANSAS

CITY           SKY/WX    TMP DP  RH WIND       PRES   REMARKS
CHANUTE        MIX PCPN  37  35  92 NE10      30.03F FOG     WCI  30
6HR MIN TEMP:  37; 6HR MAX TEMP:  37; 6HR PCP:  0.19;

COFFEYVILLE    CLOUDY    40  39  97 NE10      30.02F WCI  33
6HR MIN TEMP:  39; 6HR MAX TEMP:  40; 6HR PCP:  0.46;

HUTCHINSON     MIX PCPN  32  31  96 NE8       30.06F FOG
6HR MIN TEMP:  31; 6HR MAX TEMP:  32; 6HR PCP:  0.02;

MEDICINE LODGE   N/A     31  31 100 NE7       30.04F
NEWTON         LGT SNOW  31  30  96 NE10      30.05F FOG     WCI  22
PARSONS        CLOUDY    39  38  96 NE7       30.03F
6HR MIN TEMP:  38; 6HR MAX TEMP:  39; 6HR PCP:  0.28;

WICHITA INTL   DRIZZLE   33  33 100 NE9       30.04F FOG
6HR MIN TEMP:  32; 6HR MAX TEMP:  34; 6HR PCP:  0.04;

WICHITA JABRA  CLOUDY    32  32 100 NE9       30.04F FOG
6HR MIN TEMP:  31; 6HR MAX TEMP:  32; 6HR PCP: TRACE;

WICHITA MCCONL LGT RAIN  32  32  99 NE6       30.03F FOG
WINFIELD       CLOUDY    34  34 100 N7        30.04F FOG
6HR MIN TEMP:  34; 6HR MAX TEMP:  35; 6HR PCP: TRACE;

$$

KSZ007>012-019>026-033>040-048>060-102>105-240700-
NORTHEAST KANSAS

CITY           SKY/WX    TMP DP  RH WIND       PRES   REMARKS
CONCORDIA      CLOUDY    29  26  89 NE9       30.10F
6HR MIN TEMP:  29; 6HR MAX TEMP:  33;

EMPORIA        MIX PCPN  31  30  96 NE10      30.06F FOG     WCI  22
6HR MIN TEMP:  31; 6HR MAX TEMP:  31; 6HR PCP:  0.05;

LAWRENCE       LGT RAIN  34  32  92 NE12      30.12F FOG     WCI  25
6HR MIN TEMP:  34; 6HR MAX TEMP:  36; 6HR PCP:  0.01;

MANHATTAN      LGT RAIN  33  30  88 NE10      30.11F FOG     WCI  25
6HR MIN TEMP:  33; 6HR MAX TEMP:  36; 6HR PCP: TRACE;

OLATHE IND     LGT RAIN  33  32  96 NE13      30.11F FOG     WCI  24
6HR MIN TEMP:  33; 6HR MAX TEMP:  34; 6HR PCP:  0.02;

OLATHE EXE     CLOUDY    32  32 100 NE13      30.10F WCI  22
6HR MIN TEMP:  32; 6HR MAX TEMP:  33; 6HR PCP:  0.06;

SALINA         FRZ RAIN  32  31  96 NE9       30.10F FOG
6HR MIN TEMP:  32; 6HR MAX TEMP:  34; 6HR PCP:  0.01;

TOPEKA BILLARD LGT RAIN  34  32  92 NE9       30.12F
6HR MIN TEMP:  34; 6HR MAX TEMP:  35; 6HR PCP:  0.01;

TOPEKA FORBES  CLOUDY    34  32  92 NE7       30.10F FOG
6HR MIN TEMP:  34; 6HR MAX TEMP:  34; 6HR PCP: TRACE;

$$




USA.gov is the U.S. government's official web portal to all federal, state and local government web resources and services.